When you browse on this site, cookies collect data to enhance your experience and personalize the content and advertising you see.
Visit our Privacy Policy to learn more. By continuing to use the site, you agree to this use of cookies and data.
  • In Austria
  • List of Countries
  • For 7 days
  • Water Temperature
  • Weather Map
  • News
  • Weather Widgets
  • user-avatar
    Login

    Hourly Weather Kalinovka

    Today, 20 August, Tuesday

    Time Temperature Precipitation Wind Pressure Humidity
    00:00 +20°C° 0 mm 2 mps 739 mmHg 58%
    01:00 +19°C° 0 mm 2 mps 739 mmHg 58%
    02:00 +19°C° 0 mm 3 mps 739 mmHg 56%
    03:00 +19°C° 0 mm 2 mps 739 mmHg 54%
    04:00 +18°C° 0 mm 2 mps 740 mmHg 53%
    05:00 +18°C° 0 mm 2 mps 740 mmHg 52%
    06:00 +20°C° 0 mm 2 mps 740 mmHg 51%
    07:00 +21°C° 0 mm 2 mps 740 mmHg 50%
    08:00 +24°C° 0 mm 1 mps 741 mmHg 49%
    09:00 +26°C° 0 mm 2 mps 741 mmHg 45%
    10:00 +28°C° 0 mm 2 mps 741 mmHg 41%
    11:00 +30°C° 0 mm 2 mps 741 mmHg 37%
    12:00 +30°C° 0 mm 2 mps 741 mmHg 36%
    13:00 +31°C° 0 mm 2 mps 741 mmHg 34%
    14:00 +32°C° 0 mm 1 mps 741 mmHg 34%
    15:00 +31°C° 0 mm 1 mps 741 mmHg 35%
    16:00 +31°C° 0 mm 1 mps 741 mmHg 36%
    17:00 +31°C° 0 mm 1 mps 741 mmHg 37%
    18:00 +29°C° 0 mm 1 mps 741 mmHg 41%
    19:00 +27°C° 0 mm 2 mps 741 mmHg 45%
    20:00 +24°C° 0 mm 2 mps 741 mmHg 49%
    21:00 +24°C° 0 mm 2 mps 741 mmHg 50%
    22:00 +23°C° 0 mm 2 mps 741 mmHg 51%
    23:00 +21°C° 0 mm 2 mps 741 mmHg 51%

    Tomorrow, 21 August, Wednesday

    Time Temperature Precipitation Wind Pressure Humidity
    00:00 +21°C° 0 mm 2 mps 741 mmHg 52%
    01:00 +20°C° 0 mm 2 mps 741 mmHg 52%
    02:00 +20°C° 0 mm 2 mps 741 mmHg 53%
    03:00 +19°C° 0 mm 2 mps 741 mmHg 54%
    04:00 +19°C° 0 mm 2 mps 741 mmHg 54%
    05:00 +19°C° 0 mm 2 mps 740 mmHg 55%
    06:00 +20°C° 0 mm 2 mps 741 mmHg 54%
    07:00 +23°C° 0 mm 2 mps 741 mmHg 53%
    08:00 +25°C° 0 mm 2 mps 741 mmHg 52%
    09:00 +27°C° 0 mm 2 mps 741 mmHg 47%
    10:00 +28°C° 0 mm 2 mps 741 mmHg 43%
    11:00 +30°C° 0 mm 2 mps 741 mmHg 38%
    12:00 +31°C° 0 mm 2 mps 741 mmHg 36%
    13:00 +31°C° 0 mm 1 mps 741 mmHg 34%
    14:00 +32°C° 0 mm 1 mps 740 mmHg 33%
    15:00 +32°C° 0 mm 1 mps 740 mmHg 34%
    16:00 +31°C° 0 mm 1 mps 740 mmHg 35%
    17:00 +31°C° 0 mm 1 mps 739 mmHg 37%
    18:00 +29°C° 0 mm 1 mps 740 mmHg 42%
    19:00 +27°C° 0 mm 1 mps 740 mmHg 47%
    20:00 +24°C° 0 mm 1 mps 740 mmHg 52%
    21:00 +24°C° 0 mm 1 mps 740 mmHg 54%
    22:00 +23°C° 0 mm 1 mps 740 mmHg 57%
    23:00 +22°C° 0 mm 1 mps 740 mmHg 59%

    Day after tomorrow, 22 August, Thursday

    Time Temperature Precipitation Wind Pressure Humidity
    00:00 +22°C° 0 mm 1 mps 740 mmHg 63%
    01:00 +20°C° 0 mm 2 mps 740 mmHg 67%
    02:00 +20°C° 0 mm 3 mps 740 mmHg 71%
    03:00 +20°C° 0 mm 3 mps 740 mmHg 77%
    04:00 +20°C° 0 mm 4 mps 740 mmHg 84%
    05:00 +20°C° 0 mm 5 mps 740 mmHg 90%
    06:00 +20°C° 0 mm 5 mps 741 mmHg 88%
    07:00 +20°C° 0 mm 5 mps 741 mmHg 86%
    08:00 +20°C° 0 mm 5 mps 741 mmHg 85%
    09:00 +20°C° 0 mm 5 mps 742 mmHg 82%
    10:00 +20°C° 0 mm 5 mps 742 mmHg 80%
    11:00 +21°C° 0 mm 5 mps 742 mmHg 78%
    12:00 +21°C° 0 mm 5 mps 742 mmHg 77%
    13:00 +21°C° 0 mm 5 mps 742 mmHg 76%
    14:00 +21°C° 0 mm 5 mps 742 mmHg 75%
    15:00 +21°C° 0 mm 5 mps 742 mmHg 76%
    16:00 +21°C° 0 mm 5 mps 742 mmHg 77%
    17:00 +20°C° 0 mm 5 mps 742 mmHg 78%
    18:00 +19°C° 0 mm 4 mps 742 mmHg 82%
    19:00 +19°C° 0 mm 4 mps 742 mmHg 85%
    20:00 +18°C° 0 mm 3 mps 742 mmHg 88%
    21:00 +17°C° 0 mm 3 mps 742 mmHg 89%
    22:00 +17°C° 0 mm 3 mps 742 mmHg 90%
    23:00 +17°C° 0 mm 3 mps 742 mmHg 91%

    23 August, Friday

    Time Temperature Precipitation Wind Pressure Humidity
    00:00 +16°C° 0 mm 3 mps 742 mmHg 92%
    01:00 +16°C° 0 mm 3 mps 742 mmHg 92%
    02:00 +16°C° 0 mm 3 mps 742 mmHg 93%
    03:00 +16°C° 0 mm 3 mps 742 mmHg 93%
    04:00 +14°C° 0 mm 3 mps 742 mmHg 94%
    05:00 +14°C° 0 mm 3 mps 742 mmHg 95%
    06:00 +16°C° 0 mm 3 mps 742 mmHg 90%
    07:00 +17°C° 0 mm 3 mps 742 mmHg 86%
    08:00 +18°C° 0 mm 4 mps 742 mmHg 82%
    09:00 +19°C° 0 mm 4 mps 743 mmHg 77%
    10:00 +21°C° 0 mm 4 mps 743 mmHg 72%
    11:00 +23°C° 0 mm 4 mps 743 mmHg 67%
    12:00 +23°C° 0 mm 4 mps 743 mmHg 64%
    13:00 +25°C° 0 mm 5 mps 743 mmHg 61%
    14:00 +26°C° 0 mm 5 mps 743 mmHg 58%
    15:00 +26°C° 0 mm 5 mps 743 mmHg 58%
    16:00 +25°C° 0 mm 5 mps 742 mmHg 58%
    17:00 +25°C° 0 mm 5 mps 742 mmHg 58%
    18:00 +22°C° 0 mm 4 mps 742 mmHg 63%
    19:00 +20°C° 0 mm 4 mps 743 mmHg 68%
    20:00 +19°C° 0 mm 3 mps 743 mmHg 73%
    21:00 +18°C° 0 mm 3 mps 743 mmHg 75%
    22:00 +17°C° 0 mm 3 mps 743 mmHg 77%
    23:00 +16°C° 0 mm 3 mps 743 mmHg 78%

    24 August, Saturday

    Time Temperature Precipitation Wind Pressure Humidity
    00:00 +16°C° 0 mm 3 mps 743 mmHg 81%
    01:00 +14°C° 0 mm 3 mps 743 mmHg 84%
    02:00 +13°C° 0 mm 3 mps 743 mmHg 86%
    03:00 +13°C° 0 mm 3 mps 743 mmHg 89%
    04:00 +13°C° 0 mm 3 mps 743 mmHg 91%
    05:00 +12°C° 0 mm 3 mps 743 mmHg 93%
    06:00 +14°C° 0 mm 3 mps 743 mmHg 86%
    07:00 +17°C° 0 mm 3 mps 743 mmHg 80%
    08:00 +18°C° 0 mm 4 mps 743 mmHg 74%
    09:00 +20°C° 0 mm 4 mps 743 mmHg 68%
    10:00 +22°C° 0 mm 4 mps 743 mmHg 62%
    11:00 +25°C° 0 mm 4 mps 743 mmHg 56%
    12:00 +25°C° 0 mm 4 mps 743 mmHg 56%
    13:00 +26°C° 0 mm 4 mps 743 mmHg 56%
    14:00 +26°C° 0 mm 4 mps 742 mmHg 55%
    15:00 +26°C° 0 mm 3 mps 742 mmHg 56%
    16:00 +25°C° 0 mm 3 mps 742 mmHg 57%
    17:00 +25°C° 0 mm 3 mps 742 mmHg 59%
    18:00 +22°C° 0 mm 3 mps 741 mmHg 66%
    19:00 +21°C° 0 mm 2 mps 741 mmHg 73%
    20:00 +19°C° 0 mm 2 mps 741 mmHg 80%
    21:00 +18°C° 0 mm 2 mps 741 mmHg 82%
    22:00 +18°C° 0 mm 2 mps 741 mmHg 83%
    23:00 +17°C° 0 mm 2 mps 741 mmHg 85%

    25 August, Sunday

    Time Temperature Precipitation Wind Pressure Humidity
    00:00 +17°C° 0 mm 2 mps 741 mmHg 85%
    01:00 +16°C° 0 mm 2 mps 741 mmHg 85%
    02:00 +16°C° 0 mm 2 mps 741 mmHg 85%
    03:00 +15°C° 0 mm 2 mps 741 mmHg 86%
    04:00 +15°C° 0 mm 2 mps 741 mmHg 87%
    05:00 +15°C° 0 mm 2 mps 741 mmHg 88%
    06:00 +17°C° 0 mm 2 mps 741 mmHg 82%
    07:00 +19°C° 0 mm 2 mps 741 mmHg 76%
    08:00 +20°C° 0 mm 2 mps 742 mmHg 69%
    09:00 +22°C° 0 mm 3 mps 742 mmHg 64%
    10:00 +25°C° 0 mm 3 mps 742 mmHg 58%
    11:00 +26°C° 0 mm 3 mps 742 mmHg 52%
    12:00 +27°C° 0 mm 3 mps 742 mmHg 49%
    13:00 +28°C° 0 mm 3 mps 742 mmHg 45%
    14:00 +28°C° 0 mm 3 mps 742 mmHg 41%
    15:00 +28°C° 0 mm 3 mps 741 mmHg 41%
    16:00 +27°C° 0 mm 4 mps 741 mmHg 41%
    17:00 +27°C° 0 mm 4 mps 741 mmHg 42%
    18:00 +23°C° 0 mm 4 mps 741 mmHg 46%
    19:00 +21°C° 0 mm 3 mps 741 mmHg 50%
    20:00 +19°C° 0 mm 3 mps 741 mmHg 55%
    21:00 +18°C° 0 mm 3 mps 741 mmHg 56%
    22:00 +18°C° 0 mm 3 mps 741 mmHg 58%
    23:00 +17°C° 0 mm 3 mps 741 mmHg 59%
    Show more